Showing default

OPS 7613 (P/L 6), 4295

Orbit data source: Space-Track

OPS 7613 (P/L 6), 4295 is an American payload satellite in LEO that was launched on Tue, 30 Sep 1969 UTC via a THORAD SLV-2G AGENA D launch vehicle from the Air Force Western Test Range (AFWTR). Payload-class satellites include a variety of spacecraft equipped with specific instruments for various scientific and technological missions. These include communications satellites like Starlink; space stations such as the ISS; scientific satellites like the Hubble; Earth observation satellites from companies like Planet Labs, Umbra, and HawkEye 360; GPS; miniature CubeSats for education and research; and military/defense satellites.

Loading next visibility...
Identifier
4295, 1969-082G
Orbit
LEO
Country
Flag of USUS
Related business
Manufacturer
NRL
Mission
Spacecraft
Bus & Motor
NRL MULTI, Unknown motor
Mass
103 kg wet, 103 kg dry
Launch date (UTC)
1969-09-30 (57 years ago)
Launch vehicle
THORAD SLV-2G AGENA D
Launch site
Air Force Western Test Range (AFWTR)
Object type
Payload
Rocket body
Debris
Shape & HBR
Unknown shape, 0.3 m
Radar Cross Section
Medium (>0.1 m² and <1 m²)

Expand to show TLE details & history
Last TLE update: 20 hours ago

TLE from 20 hours ago
0 OPS 7613 (P/L 6)
1 04295U 69082G   26173.52296897  .00000004  00000-0  41443-4 0  9996
2 04295  70.0126  98.0740 0018929 146.5259 213.7047 13.95597825886232
Epoch: 2026-06-22T12:33Z
TLE epoch observation values (Epoch: 2026-06-22T12:33:04.519Z)
Latitude
-0.00007°
Longitude
-0.90252°
Altitude
922.877 km
Speed
7.385 km/s
True Right ascension
06h 32m 17s
True Declination
0° 00' 00"
Sunlit
Object was in daylight at epoch
Visualization orbit readout
Latitude
Unknown
Longitude
Unknown
Altitude
Unknown
Speed
Unknown
Apparent Right ascension
Unknown
Apparent Declination
Unknown
Sunlit
N/A
Visualization observer readout
Local Sidereal Time
19:54:55
Azimuth
Unknown
Elevation
Unknown
Doppler factor
Unknown
Orbital elements
Apogee altitude
920.912 km
Perigee altitude
893.331 km
Semi-major axis
7,285.258 km
Eccentricity
0.00189
Inclination
70.0126°
RAAN
98.074°
Arg. of periapsis
146.5259°
True anomaly
213.58457°
Mean anomaly
213.7047°
Eccentric anomaly
213.64461°
Mean motion
3.4904 °/min
Orbital period
103.14 mins
BSTAR
0.000041443

Documentation

Showing up to 5 results
|